Tracking 31027 objects as of 19-Jul-2025
HD Live streaming from Space Station
objects crossing your sky now

YAOGAN-43 O1E

Track YAOGAN-43 O1E now!
10-day predictions
YAOGAN-43 O1E is classified as:


NORAD ID: 60462
Int'l Code: 2024-148E
Perigee: 494.2 km
Apogee: 501.8 km
Inclination: 35.0 °
Period: 94.4 minutes
Semi major axis: 6868 km
RCS: Unknown
Launch date: August 16, 2024
Source: People's Republic of China (PRC)
Launch site: Xichang Space Center, China (XSC)
Your satellite tracking list
STARLINK-31879
Track 1 satellite(s)




NASA's NSSDC Master Catalog

Two Line Element Set (TLE):
1 60462U 24148E   25199.82907984  .00012028  28822-7  46893-3 0  9995
2 60462  34.9942  97.8869 0005594  56.7794 303.3457 15.24975763 58163
Source of the keplerian elements: AFSPC